GW6348 Weather Reports


time (UTC)temp
C
wind
direction
speed
KPH
gust
KPH
rain 1hr
cm
rain 24hr
cm
rain mn
cm
humidity
%
barometer
mb
20260504173018 24 142 6.4 14.5 0.00 0.05 0.05 42 1017.7
20260504171524 23 130 3.2 9.7 0.00 0.05 0.05 46 1017.8
20260504081518 19 277 4.8 11.3 0.00 0.08 0.00 63 1017.7
20260504050012 20 218 9.7 17.7 0.00 0.08 0.00 58 1019.3
20260504044512 20 212 8.0 17.7 0.00 0.08 0.08 61 1019.4
20260504043011 20 200 14.5 22.5 0.00 0.08 0.08 59 1019.5
20260504041509 20 196 12.9 17.7 0.00 0.08 0.08 60 1019.6
20260504040012 20 220 12.9 20.9 0.00 0.08 0.08 60 1019.4
20260504034511 20 196 16.1 25.7 0.00 0.08 0.08 58 1019.4
20260504033013 20 212 9.7 19.3 0.00 0.08 0.08 53 1019.4
20260504031514 20 200 11.3 19.3 0.00 0.08 0.08 51 1019.5
20260504030015 20 207 11.3 19.3 0.00 0.08 0.08 55 1019.4
20260504024512 20 207 11.3 16.1 0.00 0.08 0.08 57 1019.1
20260504023014 21 201 9.7 12.9 0.00 0.08 0.08 59 1019.2
20260504021513 21 221 3.2 9.7 0.00 0.08 0.08 54 1018.9
20260504020017 21 221 3.2 6.4 0.00 0.08 0.08 54 1018.8
20260504014514 21 219 4.8 11.3 0.00 0.08 0.08 50 1018.7
20260504013014 21 216 4.8 9.7 0.00 0.08 0.08 54 1018.7
20260504011514 21 226 3.2 6.4 0.00 0.08 0.08 51 1018.5
20260504010013 21 229 3.2 8.0 0.00 0.08 0.08 51 1018.6
20260504004532 21 222 4.8 9.7 0.00 0.08 0.08 50 1018.4
20260504003011 22 253 4.8 9.7 0.00 0.08 0.08 48 1018.2
20260504001528 22 272 6.4 16.1 0.00 0.08 0.08 45 1018.2
20260504000016 22 234 6.4 11.3 0.00 0.08 0.08 46 1018.2
20260503234519 22 204 6.4 14.5 0.00 0.08 0.08 45 1018.3
20260503233015 22 254 6.4 16.1 0.00 0.08 0.08 45 1018.5
20260503231514 22 249 8.0 17.7 0.00 0.10 0.08 42 1018.5
20260503230017 23 238 11.3 17.7 0.00 0.10 0.08 43 1018.5
20260503224514 23 225 9.7 17.7 0.00 0.10 0.08 40 1018.6
20260503223015 22 233 6.4 19.3 0.00 0.10 0.08 41 1018.6
20260503221517 22 269 11.3 19.3 0.00 0.10 0.08 40 1018.6
20260503220027 22 233 14.5 17.7 0.00 0.10 0.08 42 1018.8
20260503214529 22 257 9.7 16.1 0.00 0.10 0.08 41 1019.2
20260503213029 22 194 8.0 19.3 0.00 0.10 0.08 40 1019.2
20260503211519 22 216 8.0 19.3 0.00 0.10 0.08 43 1019.4
20260503210015 22 204 12.9 19.3 0.00 0.10 0.08 41 1019.6
20260503204525 22 182 11.3 16.1 0.00 0.10 0.08 40 1019.9
20260503203019 22 218 14.5 19.3 0.00 0.10 0.08 40 1020.1
20260503201522 22 203 14.5 20.9 0.00 0.10 0.08 42 1020.2
20260503200020 22 195 12.9 19.3 0.00 0.10 0.08 41 1020.4
20260503194513 22 205 9.7 19.3 0.00 0.10 0.08 40 1020.5
20260503193018 23 196 11.3 17.7 0.00 0.13 0.08 38 1020.7
20260503191520 23 201 9.7 16.1 0.00 0.13 0.08 40 1021.1
20260503190026 23 214 8.0 19.3 0.00 0.13 0.08 41 1021.1
20260503184524 22 203 9.7 16.1 0.00 0.13 0.08 38 1021.4
20260503183014 23 247 4.8 14.5 0.00 0.13 0.08 35 1021.3
20260503181538 23 114 11.3 16.1 0.00 0.13 0.08 34 1021.3
20260503180037 24 115 6.4 20.9 0.00 0.13 0.08 37 1021.6
20260503174524 22 95 6.4 16.1 0.00 0.13 0.08 35 1022.0